FW0816 Weather Reports


time (UTC)temp
F
wind
direction
speed
knots
gust
knots
rain 1hr
in
rain 24hr
in
rain mn
in
humidity
%
barometer
mb
20260505091517 46 219 11.3 25.2 0.00 0.16 0.00 82 1008.5
20260505090017 46 221 12.2 25.2 0.00 0.16 0.00 82 1008.5
20260505084517 46 240 20.0 28.7 0.00 0.16 0.00 82 1008.3
20260505083014 46 234 15.6 27.8 0.00 0.16 0.00 82 1008.0
20260505081511 46 259 17.4 27.8 0.00 0.16 0.00 82 1007.7
20260505080009 46 206 19.1 28.7 0.00 0.16 0.00 82 1007.4
20260505074505 46 231 14.8 28.7 0.00 0.20 0.00 81 1007.3
20260505073004 46 245 19.1 32.2 0.00 0.20 0.00 81 1006.9
20260505071600 46 195 6.1 20.0 0.00 0.20 0.00 80 1006.7
20260505070059 46 232 10.4 26.9 0.00 0.20 0.00 79 1006.3
20260505064600 46 257 12.2 30.4 0.00 0.23 0.00 79 1006.0
20260505063113 46 207 8.7 21.7 0.00 0.23 0.00 79 1005.8
20260505061556 46 234 13.0 25.2 0.00 0.23 0.00 78 1005.6
20260505060054 47 236 17.4 29.5 0.00 0.23 0.00 78 1005.2
20260505054558 47 219 19.1 29.5 0.00 0.23 0.00 79 1005.5
20260505053056 48 226 12.2 24.3 0.00 0.23 0.00 78 1005.3
20260505051546 47 222 15.6 39.1 0.00 0.23 0.00 79 1005.2
20260505041549 48 191 11.3 25.2 0.00 0.23 0.00 79 1004.3
20260505040040 49 217 13.0 30.4 0.00 0.23 0.00 79 1004.3
20260505034532 49 220 14.8 30.4 0.00 0.24 0.00 78 1004.0
20260505033028 49 225 15.6 31.3 0.00 0.24 0.00 76 1003.8
20260505031537 49 209 12.2 26.1 0.00 0.24 0.00 75 1003.7
20260505030023 50 180 13.0 33.0 0.00 0.24 0.00 74 1003.7
20260505024521 50 257 12.2 27.8 0.00 0.32 0.24 71 1003.5
20260505023020 51 228 14.8 23.5 0.00 0.32 0.24 69 1003.3
20260505021520 51 249 14.8 25.2 0.00 0.32 0.24 67 1003.4
20260505020018 51 238 14.8 20.9 0.00 0.32 0.24 66 1003.0
20260505014517 51 203 7.0 19.1 0.00 0.51 0.24 64 1002.8
20260505013015 51 220 7.0 21.7 0.00 0.51 0.24 62 1002.7
20260505011513 51 178 8.7 20.0 0.00 0.51 0.24 62 1002.5
20260505010012 51 203 7.0 16.5 0.00 0.51 0.24 62 1002.2
20260505004510 50 172 9.6 24.3 0.00 0.72 0.24 63 1001.8
20260505003009 49 153 7.0 17.4 0.00 0.72 0.24 60 1001.8
20260505001508 49 176 7.8 19.1 0.00 0.72 0.24 61 1001.5
20260505000010 50 150 5.2 13.0 0.00 0.72 0.24 60 1001.3
20260504234508 50 230 8.7 16.5 0.00 0.88 0.24 60 1001.0
20260504233003 49 245 9.6 15.6 0.00 0.88 0.24 62 1000.7
20260504231501 49 219 13.9 20.9 0.00 0.88 0.24 64 1000.7
20260504230100 49 254 7.8 18.2 0.00 0.88 0.24 63 1000.6
20260504224609 49 256 15.6 26.9 0.00 1.11 0.24 63 1000.7
20260504223131 50 267 14.8 22.6 0.00 1.11 0.24 62 1000.6
20260504221557 50 253 19.1 33.0 0.00 1.11 0.24 62 1000.3
20260504220056 50 249 14.8 28.7 0.00 1.11 0.24 64 1000.3
20260504214554 49 234 18.2 33.0 0.00 1.19 0.24 64 1000.0
20260504213101 49 266 15.6 26.1 0.00 1.19 0.24 65 1000.0
20260504211550 49 194 8.7 29.5 0.00 1.19 0.24 66 999.8
20260504210049 49 258 14.8 24.3 0.00 1.19 0.24 67 999.5
20260504204548 48 228 15.6 27.8 0.00 1.28 0.24 68 999.2
20260504203022 48 263 15.6 27.8 0.00 1.28 0.24 69 999.1
20260504201515 47 238 19.1 34.8 0.00 1.28 0.24 71 998.9
20260504200014 47 273 20.0 38.2 0.00 1.28 0.24 73 998.3
20260504194511 47 226 13.0 32.2 0.00 1.28 0.24 76 998.1
20260504193008 46 259 14.8 35.6 0.00 1.28 0.24 78 997.6
20260504191506 46 272 20.0 32.2 0.00 1.28 0.24 77 997.2
20260504190004 47 238 21.7 38.2 0.00 1.28 0.24 78 996.6
20260504184502 46 240 25.2 40.0 0.00 1.28 0.24 79 995.8
20260504183059 45 270 30.4 46.1 0.00 1.28 0.24 80 996.0
20260504181600 44 257 26.1 50.4 0.00 1.28 0.24 84 995.8
20260504180055 43 254 23.5 38.2 0.00 1.28 0.24 87 996.0
20260504174557 42 249 22.6 39.1 0.00 1.28 0.24 88 996.1
20260504173050 42 278 22.6 38.2 0.01 1.28 0.24 89 995.5
20260504171549 41 259 19.1 33.9 0.02 1.28 0.24 91 995.3